Year,Month,Day,Hour,Minute,Value (Times are PST for temperature in C)
2014,07,02,00,00,20.90
2014,07,02,00,01,20.90
2014,07,02,00,02,21.00
2014,07,02,00,03,21.00
2014,07,02,00,04,21.00
2014,07,02,00,05,21.00
2014,07,02,00,06,21.00
2014,07,02,00,07,21.00
2014,07,02,00,08,20.90
2014,07,02,00,09,20.90
2014,07,02,00,10,20.80
2014,07,02,00,11,20.80
2014,07,02,00,12,20.70
2014,07,02,00,13,20.70
2014,07,02,00,14,20.60
2014,07,02,00,15,20.60
2014,07,02,00,16,20.50
2014,07,02,00,17,20.40
2014,07,02,00,18,20.30
2014,07,02,00,19,20.30
2014,07,02,00,20,20.20
2014,07,02,00,21,20.20
2014,07,02,00,22,20.10
2014,07,02,00,23,20.00
2014,07,02,00,24,19.90
2014,07,02,00,25,19.90
2014,07,02,00,26,19.80
2014,07,02,00,27,19.80
2014,07,02,00,28,19.80
2014,07,02,00,29,19.70
2014,07,02,00,30,19.70
2014,07,02,00,31,19.70
2014,07,02,00,32,19.70
2014,07,02,00,33,19.70
2014,07,02,00,34,19.70
2014,07,02,00,35,19.60
2014,07,02,00,36,19.60
2014,07,02,00,37,19.60
2014,07,02,00,38,19.60
2014,07,02,00,39,19.50
2014,07,02,00,40,19.50
2014,07,02,00,41,19.40
2014,07,02,00,42,19.40
2014,07,02,00,43,19.40
2014,07,02,00,44,19.40
2014,07,02,00,45,19.40
2014,07,02,00,46,19.30
2014,07,02,00,47,19.30
2014,07,02,00,48,19.20
2014,07,02,00,49,19.10
2014,07,02,00,50,19.10
2014,07,02,00,51,19.00
2014,07,02,00,52,18.90
2014,07,02,00,53,18.80
2014,07,02,00,54,18.80
2014,07,02,00,55,18.70
2014,07,02,00,56,18.60
2014,07,02,00,57,18.60
2014,07,02,00,58,18.50
2014,07,02,00,59,18.40
2014,07,02,01,00,18.30
2014,07,02,01,01,18.30
2014,07,02,01,02,18.20
2014,07,02,01,03,18.20
2014,07,02,01,04,18.20
2014,07,02,01,05,18.10
2014,07,02,01,06,18.10
2014,07,02,01,07,18.00
2014,07,02,01,08,18.00
2014,07,02,01,09,17.90
2014,07,02,01,10,17.80
2014,07,02,01,11,17.80
2014,07,02,01,12,17.80
2014,07,02,01,13,17.80
2014,07,02,01,14,17.80
2014,07,02,01,15,17.90
2014,07,02,01,16,18.00
2014,07,02,01,17,18.10
2014,07,02,01,18,18.10
2014,07,02,01,19,18.20
2014,07,02,01,20,18.30
2014,07,02,01,21,18.30
2014,07,02,01,22,18.40
2014,07,02,01,23,18.40
2014,07,02,01,24,18.50
2014,07,02,01,25,18.50
2014,07,02,01,26,18.60
2014,07,02,01,27,18.70
2014,07,02,01,28,18.70
2014,07,02,01,29,18.80
2014,07,02,01,30,18.80
2014,07,02,01,31,18.80
2014,07,02,01,32,18.80
2014,07,02,01,33,18.90
2014,07,02,01,34,18.90
2014,07,02,01,35,18.90
2014,07,02,01,36,18.90
2014,07,02,01,37,18.90
2014,07,02,01,38,18.90
2014,07,02,01,39,18.90
2014,07,02,01,40,19.00
2014,07,02,01,41,19.00
2014,07,02,01,42,19.00
2014,07,02,01,43,19.00
2014,07,02,01,44,19.00
2014,07,02,01,45,19.00
2014,07,02,01,46,19.00
2014,07,02,01,47,19.00
2014,07,02,01,48,19.00
2014,07,02,01,49,19.00
2014,07,02,01,50,19.00
2014,07,02,01,51,19.00
2014,07,02,01,52,19.00
2014,07,02,01,53,19.00
2014,07,02,01,54,19.00
2014,07,02,01,55,19.00
2014,07,02,01,56,19.00
2014,07,02,01,57,19.00
2014,07,02,01,58,19.10
2014,07,02,01,59,19.10
2014,07,02,02,00,19.10
2014,07,02,02,01,19.10
2014,07,02,02,02,19.10
2014,07,02,02,03,19.20
2014,07,02,02,04,19.20
2014,07,02,02,05,19.20
2014,07,02,02,06,19.20
2014,07,02,02,07,19.20
2014,07,02,02,08,19.20
2014,07,02,02,09,19.20
2014,07,02,02,10,19.20
2014,07,02,02,11,19.20
2014,07,02,02,12,19.20
2014,07,02,02,13,19.20
2014,07,02,02,14,19.20
2014,07,02,02,15,19.20
2014,07,02,02,16,19.10
2014,07,02,02,17,19.10
2014,07,02,02,18,19.10
2014,07,02,02,19,19.00
2014,07,02,02,20,19.00
2014,07,02,02,21,18.90
2014,07,02,02,22,18.90
2014,07,02,02,23,18.80
2014,07,02,02,24,18.80
2014,07,02,02,25,18.70
2014,07,02,02,26,18.60
2014,07,02,02,27,18.60
2014,07,02,02,28,18.50
2014,07,02,02,29,18.50
2014,07,02,02,30,18.50
2014,07,02,02,31,18.50
2014,07,02,02,32,18.40
2014,07,02,02,33,18.40
2014,07,02,02,34,18.40
2014,07,02,02,35,18.40
2014,07,02,02,36,18.40
2014,07,02,02,37,18.40
2014,07,02,02,38,18.40
2014,07,02,02,39,18.40
2014,07,02,02,40,18.40
2014,07,02,02,41,18.30
2014,07,02,02,42,18.30
2014,07,02,02,43,18.20
2014,07,02,02,44,18.20
2014,07,02,02,45,18.20
2014,07,02,02,46,18.20
2014,07,02,02,47,18.20
2014,07,02,02,48,18.20
2014,07,02,02,49,18.10
2014,07,02,02,50,18.10
2014,07,02,02,51,18.10
2014,07,02,02,52,18.10
2014,07,02,02,53,18.00
2014,07,02,02,54,18.00
2014,07,02,02,55,18.00
2014,07,02,02,56,17.90
2014,07,02,02,57,17.90
2014,07,02,02,58,17.90
2014,07,02,02,59,17.80
2014,07,02,03,00,17.80
2014,07,02,03,01,17.70
2014,07,02,03,02,17.70
2014,07,02,03,03,17.60
2014,07,02,03,04,17.50
2014,07,02,03,05,17.50
2014,07,02,03,06,17.40
2014,07,02,03,07,17.40
2014,07,02,03,08,17.40
2014,07,02,03,09,17.40
2014,07,02,03,10,17.40
2014,07,02,03,11,17.40
2014,07,02,03,12,17.40
2014,07,02,03,13,17.40
2014,07,02,03,14,17.40
2014,07,02,03,15,17.40
2014,07,02,03,16,17.40
2014,07,02,03,17,17.40
2014,07,02,03,18,17.50
2014,07,02,03,19,17.50
2014,07,02,03,20,17.50
2014,07,02,03,21,17.40
2014,07,02,03,22,17.40
2014,07,02,03,23,17.40
2014,07,02,03,24,17.40
2014,07,02,03,25,17.40
2014,07,02,03,26,17.40
2014,07,02,03,27,17.50
2014,07,02,03,28,17.50
2014,07,02,03,29,17.50
2014,07,02,03,30,17.50
2014,07,02,03,31,17.60
2014,07,02,03,32,17.60
2014,07,02,03,33,17.60
2014,07,02,03,34,17.60
2014,07,02,03,35,17.60
2014,07,02,03,36,17.50
2014,07,02,03,37,17.50
2014,07,02,03,38,17.50
2014,07,02,03,39,17.50
2014,07,02,03,40,17.50
2014,07,02,03,41,17.40
2014,07,02,03,42,17.40
2014,07,02,03,43,17.40
2014,07,02,03,44,17.40
2014,07,02,03,45,17.40
2014,07,02,03,46,17.40
2014,07,02,03,47,17.50
2014,07,02,03,48,17.50
2014,07,02,03,49,17.60
2014,07,02,03,50,17.60
2014,07,02,03,51,17.70
2014,07,02,03,52,17.70
2014,07,02,03,53,17.80
2014,07,02,03,54,17.80
2014,07,02,03,55,17.90
2014,07,02,03,56,18.00
2014,07,02,03,57,18.10
2014,07,02,03,58,18.10
2014,07,02,03,59,18.20
2014,07,02,04,00,18.20
2014,07,02,04,01,18.20
2014,07,02,04,02,18.20
2014,07,02,04,03,18.20
2014,07,02,04,04,18.20
2014,07,02,04,05,18.20
2014,07,02,04,06,18.10
2014,07,02,04,07,18.10
2014,07,02,04,08,18.10
2014,07,02,04,09,18.10
2014,07,02,04,10,18.00
2014,07,02,04,11,18.00
2014,07,02,04,12,18.00
2014,07,02,04,13,18.00
2014,07,02,04,14,17.90
2014,07,02,04,15,17.90
2014,07,02,04,16,17.90
2014,07,02,04,17,17.80
2014,07,02,04,18,17.80
2014,07,02,04,19,17.80
2014,07,02,04,20,17.80
2014,07,02,04,21,17.70
2014,07,02,04,22,17.70
2014,07,02,04,23,17.60
2014,07,02,04,24,17.50
2014,07,02,04,25,17.50
2014,07,02,04,26,17.50
2014,07,02,04,27,17.40
2014,07,02,04,28,17.40
2014,07,02,04,29,17.40
2014,07,02,04,30,17.30
2014,07,02,04,31,17.30
2014,07,02,04,32,17.30
2014,07,02,04,33,17.30
2014,07,02,04,34,17.40
2014,07,02,04,35,17.40
2014,07,02,04,36,17.40
2014,07,02,04,37,17.50
2014,07,02,04,38,17.50
2014,07,02,04,39,17.50
2014,07,02,04,40,17.50
2014,07,02,04,41,17.50
2014,07,02,04,42,17.50
2014,07,02,04,43,17.50
2014,07,02,04,44,17.50
2014,07,02,04,45,17.50
2014,07,02,04,46,17.60
2014,07,02,04,47,17.60
2014,07,02,04,48,17.60
2014,07,02,04,49,17.60
2014,07,02,04,50,17.70
2014,07,02,04,51,17.70
2014,07,02,04,52,17.70
2014,07,02,04,53,17.80
2014,07,02,04,54,17.80
2014,07,02,04,55,17.80
2014,07,02,04,56,17.90
2014,07,02,04,57,17.90
2014,07,02,04,58,17.90
2014,07,02,04,59,17.90
2014,07,02,05,00,18.00
2014,07,02,05,01,18.00
2014,07,02,05,02,18.10
2014,07,02,05,03,18.10
2014,07,02,05,04,18.20
2014,07,02,05,05,18.20
2014,07,02,05,06,18.20
2014,07,02,05,07,18.20
2014,07,02,05,08,18.20
2014,07,02,05,09,18.20
2014,07,02,05,10,18.10
2014,07,02,05,11,18.00
2014,07,02,05,12,18.00
2014,07,02,05,13,17.90
2014,07,02,05,14,17.90
2014,07,02,05,15,17.90
2014,07,02,05,16,17.90
2014,07,02,05,17,17.90
2014,07,02,05,18,17.90
2014,07,02,05,19,17.80
2014,07,02,05,20,17.80
2014,07,02,05,21,17.90
2014,07,02,05,22,18.00
2014,07,02,05,23,18.00
2014,07,02,05,24,18.10
2014,07,02,05,25,18.10
2014,07,02,05,26,18.10
2014,07,02,05,27,18.10
2014,07,02,05,28,18.10
2014,07,02,05,29,18.10
2014,07,02,05,30,18.20
2014,07,02,05,31,18.20
2014,07,02,05,32,18.30
2014,07,02,05,33,18.30
2014,07,02,05,34,18.40
2014,07,02,05,35,18.40
2014,07,02,05,36,18.50
2014,07,02,05,37,18.50
2014,07,02,05,38,18.60
2014,07,02,05,39,18.60
2014,07,02,05,40,18.60
2014,07,02,05,41,18.60
2014,07,02,05,42,18.70
2014,07,02,05,43,18.80
2014,07,02,05,44,18.90
2014,07,02,05,45,19.00
2014,07,02,05,46,19.20
2014,07,02,05,47,19.30
2014,07,02,05,48,19.50
2014,07,02,05,49,19.60
2014,07,02,05,50,19.70
2014,07,02,05,51,19.80
2014,07,02,05,52,19.80
2014,07,02,05,53,19.90
2014,07,02,05,54,19.90
2014,07,02,05,55,20.00
2014,07,02,05,56,20.10
2014,07,02,05,57,20.10
2014,07,02,05,58,20.10
2014,07,02,05,59,20.20
2014,07,02,06,00,20.20
2014,07,02,06,01,20.20
2014,07,02,06,02,20.20
2014,07,02,06,03,20.20
2014,07,02,06,04,20.20
2014,07,02,06,05,20.20
2014,07,02,06,06,20.10
2014,07,02,06,07,20.10
2014,07,02,06,08,20.10
2014,07,02,06,09,20.10
2014,07,02,06,10,20.10
2014,07,02,06,11,20.10
2014,07,02,06,12,20.10
2014,07,02,06,13,20.10
2014,07,02,06,14,20.20
2014,07,02,06,15,20.20
2014,07,02,06,16,20.20
2014,07,02,06,17,20.20
2014,07,02,06,18,20.20
2014,07,02,06,19,20.20
2014,07,02,06,20,20.20
2014,07,02,06,21,20.20
2014,07,02,06,22,20.20
2014,07,02,06,23,20.20
2014,07,02,06,24,20.20
2014,07,02,06,25,20.10
2014,07,02,06,26,20.10
2014,07,02,06,27,20.10
2014,07,02,06,28,20.00
2014,07,02,06,29,20.00
2014,07,02,06,30,20.00
2014,07,02,06,31,19.90
2014,07,02,06,32,19.90
2014,07,02,06,33,19.80
2014,07,02,06,34,19.80
2014,07,02,06,35,19.80
2014,07,02,06,36,19.80
2014,07,02,06,37,19.70
2014,07,02,06,38,19.70
2014,07,02,06,39,19.60
2014,07,02,06,40,19.60
2014,07,02,06,41,19.50
2014,07,02,06,42,19.50
2014,07,02,06,43,19.40
2014,07,02,06,44,19.30
2014,07,02,06,45,19.10
2014,07,02,06,46,18.90
2014,07,02,06,47,18.70
2014,07,02,06,48,18.50
2014,07,02,06,49,18.20
2014,07,02,06,50,18.00
2014,07,02,06,51,17.80
2014,07,02,06,52,17.60
2014,07,02,06,53,17.50
2014,07,02,06,54,17.30
2014,07,02,06,55,17.20
2014,07,02,06,56,17.10
2014,07,02,06,57,17.00
2014,07,02,06,58,16.90
2014,07,02,06,59,16.80
2014,07,02,07,00,16.70
2014,07,02,07,01,16.60
2014,07,02,07,02,16.50
2014,07,02,07,03,16.40
2014,07,02,07,04,16.40
2014,07,02,07,05,16.40
2014,07,02,07,06,16.40
2014,07,02,07,07,16.40
2014,07,02,07,08,16.40
2014,07,02,07,09,16.40
2014,07,02,07,10,16.30
2014,07,02,07,11,16.30
2014,07,02,07,12,16.30
2014,07,02,07,13,16.30
2014,07,02,07,14,16.30
2014,07,02,07,15,16.30
2014,07,02,07,16,16.20
2014,07,02,07,17,16.10
2014,07,02,07,18,16.00
2014,07,02,07,19,16.00
2014,07,02,07,20,15.90
2014,07,02,07,21,15.80
2014,07,02,07,22,15.80
2014,07,02,07,23,15.80
2014,07,02,07,24,15.70
2014,07,02,07,25,15.70
2014,07,02,07,26,15.70
2014,07,02,07,27,15.70
2014,07,02,07,28,15.70
2014,07,02,07,29,15.70
2014,07,02,07,30,15.80
2014,07,02,07,31,15.80
2014,07,02,07,32,15.80
2014,07,02,07,33,15.70
2014,07,02,07,34,15.70
2014,07,02,07,35,15.70
2014,07,02,07,36,15.70
2014,07,02,07,37,15.80
2014,07,02,07,38,15.80
2014,07,02,07,39,15.80
2014,07,02,07,40,15.80
2014,07,02,07,41,15.80
2014,07,02,07,42,15.80
2014,07,02,07,43,15.80
2014,07,02,07,44,15.80
2014,07,02,07,45,15.80
2014,07,02,07,46,15.70
2014,07,02,07,47,15.70
2014,07,02,07,48,15.70
2014,07,02,07,49,15.70
2014,07,02,07,50,15.60
2014,07,02,07,51,15.60
2014,07,02,07,52,15.60
2014,07,02,07,53,15.50
2014,07,02,07,54,15.50
2014,07,02,07,55,15.50
2014,07,02,07,56,15.50
2014,07,02,07,57,15.50
2014,07,02,07,58,15.60
2014,07,02,07,59,15.60
2014,07,02,08,00,15.70
2014,07,02,08,01,15.70
2014,07,02,08,02,15.70
2014,07,02,08,03,15.70
2014,07,02,08,04,15.70
2014,07,02,08,05,15.70
2014,07,02,08,06,15.70
2014,07,02,08,07,15.70
2014,07,02,08,08,15.70
2014,07,02,08,09,15.80
2014,07,02,08,10,15.80
2014,07,02,08,11,15.80
2014,07,02,08,12,15.80
2014,07,02,08,13,15.90
2014,07,02,08,14,15.90
2014,07,02,08,15,15.90
2014,07,02,08,16,16.00
2014,07,02,08,17,16.00
2014,07,02,08,18,16.00
2014,07,02,08,19,16.10
2014,07,02,08,20,16.10
2014,07,02,08,21,16.10
2014,07,02,08,22,16.10
2014,07,02,08,23,16.20
2014,07,02,08,24,16.20
2014,07,02,08,25,16.20
2014,07,02,08,26,16.20
2014,07,02,08,27,16.30
2014,07,02,08,28,16.30
2014,07,02,08,29,16.30
2014,07,02,08,30,16.30
2014,07,02,08,31,16.40
2014,07,02,08,32,16.50
2014,07,02,08,33,16.60
2014,07,02,08,34,16.70
2014,07,02,08,35,16.90
2014,07,02,08,36,17.00
2014,07,02,08,37,17.10
2014,07,02,08,38,17.10
2014,07,02,08,39,17.20
2014,07,02,08,40,17.20
2014,07,02,08,41,17.20
2014,07,02,08,42,17.30
2014,07,02,08,43,17.30
2014,07,02,08,44,17.40
2014,07,02,08,45,17.40
2014,07,02,08,46,17.50
2014,07,02,08,47,17.50
2014,07,02,08,48,17.60
2014,07,02,08,49,17.60
2014,07,02,08,50,17.60
2014,07,02,08,51,17.60
2014,07,02,08,52,17.60
2014,07,02,08,53,17.50
2014,07,02,08,54,17.50
2014,07,02,08,55,17.40
2014,07,02,08,56,17.40
2014,07,02,08,57,17.40
2014,07,02,08,58,17.40
2014,07,02,08,59,17.30
2014,07,02,09,00,17.30
2014,07,02,09,01,17.30
2014,07,02,09,02,17.20
2014,07,02,09,03,17.10
2014,07,02,09,04,17.00
2014,07,02,09,05,16.90
2014,07,02,09,06,16.80
2014,07,02,09,07,16.70
2014,07,02,09,08,16.60
2014,07,02,09,09,16.50
2014,07,02,09,10,16.40
2014,07,02,09,11,16.30
2014,07,02,09,12,16.20
2014,07,02,09,13,16.20
2014,07,02,09,14,16.10
2014,07,02,09,15,16.10
2014,07,02,09,16,16.10
2014,07,02,09,17,16.20
2014,07,02,09,18,16.20
2014,07,02,09,19,16.20
2014,07,02,09,20,16.30
2014,07,02,09,21,16.30
2014,07,02,09,22,16.40
2014,07,02,09,23,16.40
2014,07,02,09,24,16.60
2014,07,02,09,25,16.70
2014,07,02,09,26,16.80
2014,07,02,09,27,16.80
2014,07,02,09,28,16.80
2014,07,02,09,29,16.90
2014,07,02,09,30,17.00
2014,07,02,09,31,17.00
2014,07,02,09,32,17.10
2014,07,02,09,33,17.20
2014,07,02,09,34,17.30
2014,07,02,09,35,17.30
2014,07,02,09,36,17.40
2014,07,02,09,37,17.50
2014,07,02,09,38,17.60
2014,07,02,09,39,17.70
2014,07,02,09,40,17.70
2014,07,02,09,41,17.80
2014,07,02,09,42,17.80
2014,07,02,09,43,17.80
2014,07,02,09,44,17.70
2014,07,02,09,45,17.70
2014,07,02,09,46,17.60
2014,07,02,09,47,17.50
2014,07,02,09,48,17.40
2014,07,02,09,49,17.40
2014,07,02,09,50,17.30
2014,07,02,09,51,17.30
2014,07,02,09,52,17.20
2014,07,02,09,53,17.10
2014,07,02,09,54,17.10
2014,07,02,09,55,17.10
2014,07,02,09,56,17.10
2014,07,02,09,57,17.10
2014,07,02,09,58,17.10
2014,07,02,09,59,17.20
2014,07,02,10,00,17.20
2014,07,02,10,01,17.30
2014,07,02,10,02,17.30
2014,07,02,10,03,17.40
2014,07,02,10,04,17.40
2014,07,02,10,05,17.30
2014,07,02,10,06,17.30
2014,07,02,10,07,17.30
2014,07,02,10,08,17.30
2014,07,02,10,09,17.30
2014,07,02,10,10,17.30
2014,07,02,10,11,17.40
2014,07,02,10,12,17.40
2014,07,02,10,13,17.50
2014,07,02,10,14,17.60
2014,07,02,10,15,17.60
2014,07,02,10,16,17.70
2014,07,02,10,17,17.70
2014,07,02,10,18,17.70
2014,07,02,10,19,17.80
2014,07,02,10,20,17.80
2014,07,02,10,21,17.80
2014,07,02,10,22,17.90
2014,07,02,10,23,17.80
2014,07,02,10,24,17.90
2014,07,02,10,25,17.90
2014,07,02,10,26,17.90
2014,07,02,10,27,17.90
2014,07,02,10,28,17.80
2014,07,02,10,29,17.90
2014,07,02,10,30,18.00
2014,07,02,10,31,18.10
2014,07,02,10,32,18.20
2014,07,02,10,33,18.40
2014,07,02,10,34,18.50
2014,07,02,10,35,18.60
2014,07,02,10,36,18.60
2014,07,02,10,37,18.60
2014,07,02,10,38,18.60
2014,07,02,10,39,18.50
2014,07,02,10,40,18.40
2014,07,02,10,41,18.30
2014,07,02,10,42,18.30
2014,07,02,10,43,18.30
2014,07,02,10,44,18.30
2014,07,02,10,45,18.30
2014,07,02,10,46,18.30
2014,07,02,10,47,18.30
2014,07,02,10,48,18.30
2014,07,02,10,49,18.30
2014,07,02,10,50,18.40
2014,07,02,10,51,18.40
2014,07,02,10,52,18.50
2014,07,02,10,53,18.60
2014,07,02,10,54,18.60
2014,07,02,10,55,18.70
2014,07,02,10,56,18.70
2014,07,02,10,57,18.70
2014,07,02,10,58,18.70
2014,07,02,10,59,18.70
2014,07,02,11,00,18.70
2014,07,02,11,01,18.70
2014,07,02,11,02,18.70
2014,07,02,11,03,18.70
2014,07,02,11,04,18.80
2014,07,02,11,05,18.80
2014,07,02,11,06,18.90
2014,07,02,11,07,19.00
2014,07,02,11,08,19.10
2014,07,02,11,09,19.20
2014,07,02,11,10,19.30
2014,07,02,11,11,19.20
2014,07,02,11,12,19.20
2014,07,02,11,13,19.20
2014,07,02,11,14,19.30
2014,07,02,11,15,19.30
2014,07,02,11,16,19.30
2014,07,02,11,17,19.40
2014,07,02,11,18,19.40
2014,07,02,11,19,19.40
2014,07,02,11,20,19.40
2014,07,02,11,21,19.40
2014,07,02,11,22,19.50
2014,07,02,11,23,19.60
2014,07,02,11,24,19.70
2014,07,02,11,25,19.70
2014,07,02,11,26,19.50
2014,07,02,11,27,19.40
2014,07,02,11,28,19.40
2014,07,02,11,29,19.20
2014,07,02,11,30,19.20
2014,07,02,11,31,19.30
2014,07,02,11,32,19.30
2014,07,02,11,33,19.40
2014,07,02,11,34,19.50
2014,07,02,11,35,19.70
2014,07,02,11,36,19.70
2014,07,02,11,37,19.80
2014,07,02,11,38,19.90
2014,07,02,11,39,19.90
2014,07,02,11,40,19.90
2014,07,02,11,41,20.00
2014,07,02,11,42,20.10
2014,07,02,11,43,20.20
2014,07,02,11,44,20.30
2014,07,02,11,45,20.20
2014,07,02,11,46,20.20
2014,07,02,11,47,20.20
2014,07,02,11,48,20.20
2014,07,02,11,49,20.30
2014,07,02,11,50,20.30
2014,07,02,11,51,20.40
2014,07,02,11,52,20.50
2014,07,02,11,53,20.50
2014,07,02,11,54,20.60
2014,07,02,11,55,20.60
2014,07,02,11,56,20.50
2014,07,02,11,57,20.50
2014,07,02,11,58,20.40
2014,07,02,11,59,20.30
2014,07,02,12,00,20.30
2014,07,02,12,01,20.30
2014,07,02,12,02,20.30
2014,07,02,12,03,20.20
2014,07,02,12,04,20.20
2014,07,02,12,05,20.10
2014,07,02,12,06,20.00
2014,07,02,12,07,19.90
2014,07,02,12,08,20.00
2014,07,02,12,09,20.00
2014,07,02,12,10,20.10
2014,07,02,12,11,20.10
2014,07,02,12,12,20.20
2014,07,02,12,13,20.20
2014,07,02,12,14,20.20
2014,07,02,12,15,20.20
2014,07,02,12,16,20.20
2014,07,02,12,17,20.30
2014,07,02,12,18,20.30
2014,07,02,12,19,20.20
2014,07,02,12,20,20.10
2014,07,02,12,21,20.10
2014,07,02,12,22,20.00
2014,07,02,12,23,20.00
2014,07,02,12,24,20.00
2014,07,02,12,25,20.10
2014,07,02,12,26,20.20
2014,07,02,12,27,20.30
2014,07,02,12,28,20.40
2014,07,02,12,29,20.50
2014,07,02,12,30,20.50
2014,07,02,12,31,20.60
2014,07,02,12,32,20.60
2014,07,02,12,33,20.70
2014,07,02,12,34,20.80
2014,07,02,12,35,20.80
2014,07,02,12,36,20.80
2014,07,02,12,37,20.80
2014,07,02,12,38,20.80
2014,07,02,12,39,20.70
2014,07,02,12,40,20.60
2014,07,02,12,41,20.70
2014,07,02,12,42,20.70
2014,07,02,12,43,20.70
2014,07,02,12,44,20.70
2014,07,02,12,45,20.70
2014,07,02,12,46,20.80
2014,07,02,12,47,20.80
2014,07,02,12,48,20.80
2014,07,02,12,49,20.80
2014,07,02,12,50,20.80
2014,07,02,12,51,20.70
2014,07,02,12,52,20.70
2014,07,02,12,53,20.70
2014,07,02,12,54,20.80
2014,07,02,12,55,20.90
2014,07,02,12,56,21.00
2014,07,02,12,57,21.10
2014,07,02,12,58,21.20
2014,07,02,12,59,21.30
2014,07,02,13,00,21.40
2014,07,02,13,01,21.50
2014,07,02,13,02,21.60
2014,07,02,13,03,21.50
2014,07,02,13,04,21.50
2014,07,02,13,05,21.60
2014,07,02,13,06,21.60
2014,07,02,13,07,21.60
2014,07,02,13,08,21.60
2014,07,02,13,09,21.60
2014,07,02,13,10,21.80
2014,07,02,13,11,21.80
2014,07,02,13,12,21.80
2014,07,02,13,13,21.70
2014,07,02,13,14,21.70
2014,07,02,13,15,21.70
2014,07,02,13,16,21.70
2014,07,02,13,17,21.80
2014,07,02,13,18,21.80
2014,07,02,13,19,21.70
2014,07,02,13,20,21.80
2014,07,02,13,21,21.80
2014,07,02,13,22,21.90
2014,07,02,13,23,21.90
2014,07,02,13,24,21.80
2014,07,02,13,25,21.70
2014,07,02,13,26,21.70
2014,07,02,13,27,21.80
2014,07,02,13,28,21.90
2014,07,02,13,29,22.00
2014,07,02,13,30,22.10
2014,07,02,13,31,22.10
2014,07,02,13,32,22.20
2014,07,02,13,33,22.20
2014,07,02,13,34,22.30
2014,07,02,13,35,22.20
2014,07,02,13,36,22.20
2014,07,02,13,37,22.30
2014,07,02,13,38,22.20
2014,07,02,13,39,22.10
2014,07,02,13,40,22.10
2014,07,02,13,41,22.00
2014,07,02,13,42,22.10
2014,07,02,13,43,22.10
2014,07,02,13,44,22.20
2014,07,02,13,45,22.20
2014,07,02,13,46,22.10
2014,07,02,13,47,22.00
2014,07,02,13,48,21.90
2014,07,02,13,49,21.90
2014,07,02,13,50,21.90
2014,07,02,13,51,21.90
2014,07,02,13,52,21.80
2014,07,02,13,53,21.80
2014,07,02,13,54,21.70
2014,07,02,13,55,21.70
2014,07,02,13,56,21.70
2014,07,02,13,57,21.80
2014,07,02,13,58,21.90
2014,07,02,13,59,21.80
2014,07,02,14,00,21.80
2014,07,02,14,01,21.80
2014,07,02,14,02,21.80
2014,07,02,14,03,21.80
2014,07,02,14,04,21.80
2014,07,02,14,05,21.90
2014,07,02,14,06,21.90
2014,07,02,14,07,21.90
2014,07,02,14,08,21.80
2014,07,02,14,09,21.70
2014,07,02,14,10,21.70
2014,07,02,14,11,21.70
2014,07,02,14,12,21.70
2014,07,02,14,13,21.60
2014,07,02,14,14,21.60
2014,07,02,14,15,21.70
2014,07,02,14,16,21.70
2014,07,02,14,17,21.70
2014,07,02,14,18,21.70
2014,07,02,14,19,21.70
2014,07,02,14,20,21.80
2014,07,02,14,21,21.90
2014,07,02,14,22,21.90
2014,07,02,14,23,21.80
2014,07,02,14,24,21.80
2014,07,02,14,25,21.80
2014,07,02,14,26,21.80
2014,07,02,14,27,21.80
2014,07,02,14,28,21.90
2014,07,02,14,29,21.90
2014,07,02,14,30,21.90
2014,07,02,14,31,21.90
2014,07,02,14,32,21.80
2014,07,02,14,33,21.70
2014,07,02,14,34,21.70
2014,07,02,14,35,21.70
2014,07,02,14,36,21.70
2014,07,02,14,37,21.80
2014,07,02,14,38,21.80
2014,07,02,14,39,21.90
2014,07,02,14,40,21.80
2014,07,02,14,41,21.80
2014,07,02,14,42,21.80
2014,07,02,14,43,21.80
2014,07,02,14,44,21.80
2014,07,02,14,45,21.70
2014,07,02,14,46,21.70
2014,07,02,14,47,21.70
2014,07,02,14,48,21.60
2014,07,02,14,49,21.60
2014,07,02,14,50,21.60
2014,07,02,14,51,21.70
2014,07,02,14,52,21.60
2014,07,02,14,53,21.60
2014,07,02,14,54,21.60
2014,07,02,14,55,21.50
2014,07,02,14,56,21.50
2014,07,02,14,57,21.50
2014,07,02,14,58,21.40
2014,07,02,14,59,21.50
2014,07,02,15,00,21.60
2014,07,02,15,01,21.60
2014,07,02,15,02,21.70
2014,07,02,15,03,21.60
2014,07,02,15,04,21.50
2014,07,02,15,05,21.40
2014,07,02,15,06,21.40
2014,07,02,15,07,21.50
2014,07,02,15,08,21.60
2014,07,02,15,09,21.60
2014,07,02,15,10,21.70
2014,07,02,15,11,21.70
2014,07,02,15,12,21.70
2014,07,02,15,13,21.70
2014,07,02,15,14,21.70
2014,07,02,15,15,21.60
2014,07,02,15,16,21.50
2014,07,02,15,17,21.40
2014,07,02,15,18,21.40
2014,07,02,15,19,21.40
2014,07,02,15,20,21.40
2014,07,02,15,21,21.40
2014,07,02,15,22,21.50
2014,07,02,15,23,21.60
2014,07,02,15,24,21.60
2014,07,02,15,25,21.60
2014,07,02,15,26,21.60
2014,07,02,15,27,21.70
2014,07,02,15,28,21.70
2014,07,02,15,29,21.80
2014,07,02,15,30,21.80
2014,07,02,15,31,21.80
2014,07,02,15,32,21.80
2014,07,02,15,33,21.70
2014,07,02,15,34,21.70
2014,07,02,15,35,21.80
2014,07,02,15,36,21.80
2014,07,02,15,37,21.80
2014,07,02,15,38,21.80
2014,07,02,15,39,21.70
2014,07,02,15,40,21.70
2014,07,02,15,41,21.60
2014,07,02,15,42,21.60
2014,07,02,15,43,21.60
2014,07,02,15,44,21.50
2014,07,02,15,45,21.50
2014,07,02,15,46,21.40
2014,07,02,15,47,21.40
2014,07,02,15,48,21.30
2014,07,02,15,49,21.40
2014,07,02,15,50,21.50
2014,07,02,15,51,21.50
2014,07,02,15,52,21.50
2014,07,02,15,53,21.60
2014,07,02,15,54,21.70
2014,07,02,15,55,21.70
2014,07,02,15,56,21.70
2014,07,02,15,57,21.70
2014,07,02,15,58,21.60
2014,07,02,15,59,21.70
2014,07,02,16,00,21.70
2014,07,02,16,01,21.80
2014,07,02,16,02,21.70
2014,07,02,16,03,21.70
2014,07,02,16,04,21.70
2014,07,02,16,05,21.70
2014,07,02,16,06,21.70
2014,07,02,16,07,21.70
2014,07,02,16,08,21.80
2014,07,02,16,09,21.70
2014,07,02,16,10,21.50
2014,07,02,16,11,21.50
2014,07,02,16,12,21.60
2014,07,02,16,13,21.70
2014,07,02,16,14,21.70
2014,07,02,16,15,21.70
2014,07,02,16,16,21.70
2014,07,02,16,17,21.70
2014,07,02,16,18,21.70
2014,07,02,16,19,21.70
2014,07,02,16,20,21.60
2014,07,02,16,21,21.60
2014,07,02,16,22,21.60
2014,07,02,16,23,21.60
2014,07,02,16,24,21.70
2014,07,02,16,25,21.70
2014,07,02,16,26,21.70
2014,07,02,16,27,21.70
2014,07,02,16,28,21.70
2014,07,02,16,29,21.80
2014,07,02,16,30,21.80
2014,07,02,16,31,21.90
2014,07,02,16,32,21.90
2014,07,02,16,33,21.80
2014,07,02,16,34,21.70
2014,07,02,16,35,21.60
2014,07,02,16,36,21.60
2014,07,02,16,37,21.50
2014,07,02,16,38,21.50
2014,07,02,16,39,21.50
2014,07,02,16,40,21.60
2014,07,02,16,41,21.50
2014,07,02,16,42,21.60
2014,07,02,16,43,21.60
2014,07,02,16,44,21.70
2014,07,02,16,45,21.60
2014,07,02,16,46,21.60
2014,07,02,16,47,21.50
2014,07,02,16,48,21.40
2014,07,02,16,49,21.40
2014,07,02,16,50,21.40
2014,07,02,16,51,21.50
2014,07,02,16,52,21.60
2014,07,02,16,53,21.50
2014,07,02,16,54,21.30
2014,07,02,16,55,21.20
2014,07,02,16,56,21.10
2014,07,02,16,57,21.10
2014,07,02,16,58,21.20
2014,07,02,16,59,21.30
2014,07,02,17,00,21.30
2014,07,02,17,01,21.30
2014,07,02,17,02,21.30
2014,07,02,17,03,21.30
2014,07,02,17,04,21.30
2014,07,02,17,05,21.30
2014,07,02,17,06,21.30
2014,07,02,17,07,21.30
2014,07,02,17,08,21.30
2014,07,02,17,09,21.20
2014,07,02,17,10,21.20
2014,07,02,17,11,21.30
2014,07,02,17,12,21.30
2014,07,02,17,13,21.20
2014,07,02,17,14,21.20
2014,07,02,17,15,21.30
2014,07,02,17,16,21.30
2014,07,02,17,17,21.30
2014,07,02,17,18,21.30
2014,07,02,17,19,21.20